DW4395 Weather Reports


time (UTC)temp
F
wind
direction
speed
knots
gust
knots
rain 1hr
in
rain 24hr
in
rain mn
in
humidity
%
barometer
mb
20260510104521 61 0.0 0.0 0.00 0.00 0.00 86 1032.1
20260510103522 61 0.0 0.0 0.00 0.00 0.00 85 1031.9
20260510102843 62 0.0 0.0 0.00 0.00 0.00 82 1031.8
20260510101521 63 0.0 0.9 0.00 0.00 0.00 83 1031.8
20260510100521 63 0.0 0.9 0.00 0.00 0.00 83 1031.7
20260510095521 63 0.0 0.0 0.00 0.00 0.00 82 1031.5
20260510094521 63 0.0 1.7 0.00 0.00 0.00 81 1031.3
20260510093520 63 0.0 0.9 0.00 0.00 0.00 81 1031.2
20260510092521 64 180 0.9 1.7 0.00 0.00 0.00 80 1031.0
20260510091523 64 180 0.9 1.7 0.00 0.00 0.00 79 1030.9
20260510090522 64 180 0.9 1.7 0.00 0.00 0.00 79 1030.6
20260510085521 64 180 0.9 2.6 0.00 0.00 0.00 78 1030.3
20260510084522 64 0.0 1.7 0.00 0.00 0.00 78 1030.2
20260510083521 64 0.0 0.9 0.00 0.00 0.00 77 1030.0
20260510082521 65 0.0 0.9 0.00 0.00 0.00 76 1030.0
20260510081521 65 0.0 1.7 0.00 0.00 0.00 76 1029.9
20260510080526 66 0.0 1.7 0.00 0.00 0.00 75 1029.8
20260510075521 66 158 0.9 1.7 0.00 0.00 0.00 74 1029.5
20260510074520 67 180 0.9 1.7 0.00 0.00 0.00 73 1029.4
20260510073701 67 180 0.9 1.7 0.00 0.00 0.00 72 1029.5
20260510072521 68 180 0.9 1.7 0.00 0.00 0.00 71 1029.3
20260510071520 68 180 0.9 2.6 0.00 0.00 0.00 70 1029.1
20260510070522 69 158 0.9 2.6 0.00 0.00 0.00 69 1029.0
20260510065521 70 135 0.9 2.6 0.00 0.00 0.00 67 1029.0
20260510064523 70 180 0.9 2.6 0.00 0.00 0.00 65 1028.9
20260510063522 71 180 0.9 1.7 0.00 0.00 0.00 63 1028.7
20260510062521 72 158 0.9 1.7 0.00 0.00 0.00 60 1028.6
20260510061521 72 203 0.9 1.7 0.00 0.00 0.00 61 1028.6
20260510060520 72 180 0.9 2.6 0.00 0.00 0.00 61 1028.4
20260510055521 73 180 0.9 1.7 0.00 0.00 0.00 61 1028.3
20260510054520 73 135 0.9 2.6 0.00 0.00 0.00 61 1028.3
20260510053520 73 180 0.9 1.7 0.00 0.00 0.00 59 1028.2
20260510052521 74 203 0.9 3.5 0.00 0.00 0.00 58 1028.2
20260510051520 74 0.0 0.9 0.00 0.00 0.00 55 1028.1
20260510050521 74 180 0.9 1.7 0.00 0.00 0.00 56 1028.1
20260510045702 74 180 0.9 1.7 0.00 0.00 0.00 56 1028.0
20260510044520 74 158 0.9 1.7 0.00 0.00 0.00 55 1028.1
20260510043520 74 0.0 0.9 0.00 0.00 0.00 55 1027.9
20260510042702 74 0.0 1.7 0.00 0.00 0.00 54 1028.0
20260510041520 74 180 0.9 1.7 0.00 0.00 0.00 56 1028.0
20260510040520 74 158 0.9 2.6 0.00 0.00 0.00 56 1028.0
20260510035521 74 0.0 1.7 0.00 0.00 0.00 56 1027.9
20260510034700 73 158 0.9 1.7 0.00 0.00 0.00 55 1028.1
20260510033522 73 0.0 0.9 0.00 0.00 0.00 57 1028.1
20260510032521 73 180 0.9 2.6 0.00 0.00 0.00 57 1028.2
20260510031520 73 158 0.9 2.6 0.00 0.00 0.00 55 1028.3
20260510030521 73 0.0 1.7 0.00 0.00 0.00 55 1028.3
20260510025520 72 203 0.9 2.6 0.00 0.00 0.00 56 1028.5
20260510024521 72 203 0.9 1.7 0.00 0.00 0.00 55 1028.7
20260510023519 73 203 0.9 1.7 0.00 0.00 0.00 58 1028.7
20260510022521 72 203 0.9 1.7 0.00 0.00 0.00 55 1028.8
20260510021522 72 0.0 1.7 0.00 0.00 0.00 58 1029.0
20260510020703 72 0.0 2.6 0.00 0.00 0.00 60 1029.0
20260510015701 72 0.0 0.9 0.00 0.00 0.00 61 1029.2
20260510014521 71 0.0 0.9 0.00 0.00 0.00 62 1029.3
20260510013521 70 0.0 1.7 0.00 0.00 0.00 62 1029.5
20260510012520 71 0.0 0.9 0.00 0.00 0.00 65 1029.8
20260510011520 71 0.0 0.0 0.00 0.00 0.00 65 1029.9
20260510010522 69 0.0 0.9 0.00 0.00 0.00 67 1030.0
20260510005519 69 0.0 0.9 0.00 0.00 0.00 68 1030.1
20260510004523 68 0.0 0.9 0.00 0.00 0.00 69 1030.2
20260510003522 67 0.0 0.9 0.00 0.00 0.00 72 1030.4
20260510002523 65 0.0 0.9 0.00 0.00 0.00 73 1030.4
20260510001520 66 0.0 0.9 0.00 0.00 0.00 70 1030.4
20260510000522 65 0.0 0.9 0.00 0.00 0.00 72 1030.4
20260509235525 63 0.0 0.9 0.00 0.00 0.00 77 1030.3
20260509234523 61 0.0 0.0 0.00 0.00 0.00 80 1030.4
20260509233523 60 0.0 0.0 0.00 0.00 0.00 81 1030.3
20260509232520 58 0.0 0.9 0.00 0.00 0.00 87 1030.4
20260509231521 57 0.0 0.0 0.00 0.00 0.00 90 1030.2
20260509230703 55 0.0 0.0 0.00 0.00 0.00 94 1030.1
20260509225522 53 0.0 0.0 0.00 0.00 0.00 97 1030.0
20260509224703 53 0.0 0.0 0.00 0.00 0.00 98 1030.1
20260509223521 51 0.0 0.0 0.00 0.00 0.00 99 1030.2
20260509222521 50 0.0 0.0 0.00 0.00 0.00 99 1030.0
20260509221522 48 0.0 0.0 0.00 0.00 0.00 98 1029.9
20260509220522 46 0.0 0.9 0.00 0.00 0.00 98 1029.9
20260509215523 45 0.0 0.0 0.00 0.00 0.00 98 1029.8
20260509214522 44 0.0 0.0 0.00 0.00 0.00 98 1029.7
20260509213521 42 0.0 0.0 0.00 0.00 0.00 97 1029.6
20260509212701 41 0.0 0.0 0.00 0.00 0.00 97 1029.6
20260509211521 40 0.0 0.0 0.00 0.00 0.00 96 1029.4
20260509210843 39 0.0 0.0 0.00 0.00 0.00 96 1029.2
20260509205702 39 0.0 0.0 0.00 0.00 0.00 95 1029.2
20260509204520 39 0.0 0.0 0.00 0.00 0.00 96 1029.0
20260509203522 39 0.0 0.0 0.00 0.00 0.00 95 1028.9
20260509202521 39 0.0 0.0 0.00 0.00 0.00 95 1028.8
20260509201522 40 0.0 0.0 0.00 0.00 0.00 95 1028.9
20260509200522 40 0.0 0.0 0.00 0.00 0.00 95 1028.8
20260509195521 40 0.0 0.0 0.00 0.00 0.00 95 1028.6
20260509194521 40 0.0 0.0 0.00 0.00 0.00 95 1028.5
20260509193522 39 0.0 0.0 0.00 0.00 0.00 95 1028.2
20260509192522 39 0.0 0.0 0.00 0.00 0.00 95 1028.2
20260509191521 39 0.0 0.0 0.00 0.00 0.00 95 1028.1
20260509190523 40 0.0 0.0 0.00 0.00 0.00 95 1028.1
20260509185521 40 0.0 0.0 0.00 0.00 0.00 95 1028.0
20260509184521 40 0.0 0.0 0.00 0.00 0.00 95 1027.9
20260509183521 40 0.0 0.0 0.00 0.00 0.00 95 1027.8
20260509182522 41 0.0 0.0 0.00 0.00 0.00 95 1027.8
20260509181524 40 0.0 0.0 0.00 0.00 0.00 96 1027.7
20260509180523 40 0.0 0.0 0.00 0.00 0.00 95 1027.7
20260509175522 40 0.0 0.0 0.00 0.00 0.00 95 1027.7
20260509174522 40 0.0 0.0 0.00 0.00 0.00 95 1027.5
20260509173523 40 0.0 0.0 0.00 0.00 0.00 95 1027.6
20260509172702 39 0.0 0.0 0.00 0.00 0.00 94 1027.5
20260509171522 39 0.0 0.0 0.00 0.00 0.00 94 1027.5
20260509170522 39 0.0 0.0 0.00 0.00 0.00 94 1027.3
20260509165521 39 0.0 0.0 0.00 0.00 0.00 93 1027.2
20260509164521 40 0.0 0.0 0.00 0.00 0.00 94 1027.2
20260509163521 40 0.0 0.0 0.00 0.00 0.00 94 1027.2
20260509162702 40 0.0 0.0 0.00 0.00 0.00 94 1027.3
20260509161521 40 0.0 0.0 0.00 0.00 0.00 93 1027.4
20260509160521 41 0.0 0.0 0.00 0.00 0.00 93 1027.5
20260509155702 41 0.0 0.0 0.00 0.00 0.00 94 1027.4
20260509154522 41 0.0 0.0 0.00 0.00 0.00 93 1027.4
20260509153522 41 0.0 0.0 0.00 0.00 0.00 93 1027.4
20260509152521 41 0.0 0.0 0.00 0.00 0.00 93 1027.4
20260509151521 41 0.0 0.0 0.00 0.00 0.00 93 1027.4
20260509150521 41 0.0 0.0 0.00 0.00 0.00 92 1027.5
20260509145701 42 0.0 0.0 0.00 0.00 0.00 92 1027.3
20260509144521 42 0.0 0.0 0.00 0.00 0.00 93 1027.3
20260509143521 42 0.0 0.0 0.00 0.00 0.00 92 1027.3
20260509142520 42 0.0 0.0 0.00 0.00 0.00 92 1027.3
20260509141702 41 0.0 0.0 0.00 0.00 0.00 91 1027.3
20260509140702 42 0.0 0.0 0.00 0.00 0.00 91 1027.2
20260509135522 43 0.0 0.0 0.00 0.00 0.00 92 1027.3
20260509134703 43 0.0 0.0 0.00 0.00 0.00 91 1027.1
20260509133521 43 0.0 0.0 0.00 0.00 0.00 91 1027.1
20260509132521 43 0.0 0.0 0.00 0.00 0.00 91 1027.2
20260509131521 43 0.0 0.0 0.00 0.00 0.00 90 1027.1
20260509130521 44 0.0 0.0 0.00 0.00 0.00 91 1027.1
20260509125522 43 0.0 0.0 0.00 0.00 0.00 89 1027.1
20260509124522 44 0.0 0.0 0.00 0.00 0.00 89 1027.1
20260509123521 44 0.0 0.0 0.00 0.00 0.00 89 1027.0
20260509122701 45 0.0 0.0 0.00 0.00 0.00 89 1027.0
20260509121520 45 0.0 0.0 0.00 0.00 0.00 89 1027.1
20260509120522 45 0.0 0.0 0.00 0.00 0.00 88 1027.1
20260509115842 46 0.0 0.0 0.00 0.00 0.00 88 1027.1
20260509114521 46 0.0 0.0 0.00 0.00 0.00 87 1027.1
20260509113521 46 0.0 0.0 0.00 0.00 0.00 86 1027.0
20260509112520 47 0.0 0.0 0.00 0.00 0.00 85 1027.0
20260509111521 47 0.0 0.0 0.00 0.00 0.00 85 1027.0
20260509110522 48 0.0 0.0 0.00 0.00 0.00 85 1027.0
20260509105521 48 0.0 0.0 0.00 0.00 0.00 85 1026.9